OAL463 KEWR-KORD

Flight info

Callsign OAL463
Flight time 2h 6m
Altitude 34000
Route COATE Q436 KAYYS WYNDE3
Aircraft B77L/H-SDE1E2E3FGHIJ2J3J4J5M1RWXY/LB1D1

Departure

Time 2026-04-22 10:45
Airport Newark Liberty International Airport (KEWR)

Arrival

Time 2026-04-22 12:51
Airport Chicago O'Hare International Airport (KORD)
Time Latitude Longitude Altitude Speed Heading
2026-04-22 10:12 40.69187 -74.17328 26 ft 0 kts 275°
2026-04-22 10:40 40.69186 -74.17316 26 ft 3 kts 275°
2026-04-22 10:40 40.69183 -74.17293 26 ft 3 kts 301°
2026-04-22 10:40 40.69172 -74.17269 26 ft 3 kts 301°
2026-04-22 10:40 40.69163 -74.17247 26 ft 3 kts 312°
2026-04-22 10:41 40.69148 -74.17228 26 ft 3 kts 322°
2026-04-22 10:41 40.69131 -74.17218 25 ft 3 kts 16°
2026-04-22 10:41 40.69114 -74.17226 26 ft 0 kts 28°
2026-04-22 10:42 40.69148 -74.17202 26 ft 12 kts 27°
2026-04-22 10:42 40.69263 -74.17128 26 ft 25 kts 26°
2026-04-22 10:42 40.69420 -74.17027 26 ft 25 kts 26°
2026-04-22 10:43 40.69575 -74.16927 26 ft 25 kts 25°
2026-04-22 10:43 40.69732 -74.16829 26 ft 25 kts 25°
2026-04-22 10:43 40.69897 -74.16763 26 ft 25 kts
2026-04-22 10:43 40.70062 -74.16721 32 ft 22 kts 49°
2026-04-22 10:44 40.70070 -74.16543 30 ft 20 kts 94°
2026-04-22 10:44 40.70062 -74.16401 24 ft 10 kts 94°
2026-04-22 10:44 40.70011 -74.16378 28 ft 10 kts 205°
2026-04-22 10:44 40.69858 -74.16472 30 ft 50 kts 205°
2026-04-22 10:45 40.69340 -74.16805 28 ft 114 kts 206°
2026-04-22 10:45 40.68458 -74.17359 28 ft 164 kts 205°
2026-04-22 10:45 40.67343 -74.18023 291 ft 178 kts 204°
2026-04-22 10:45 40.66201 -74.18722 725 ft 184 kts 200°
2026-04-22 10:46 40.65027 -74.19422 1207 ft 189 kts 207°
2026-04-22 10:46 40.63844 -74.20233 1832 ft 193 kts 206°
2026-04-22 10:46 40.62634 -74.21060 2470 ft 196 kts 204°
2026-04-22 10:46 40.61485 -74.21850 3446 ft 178 kts 205°
2026-04-22 10:47 40.60366 -74.22534 4093 ft 180 kts 202°
2026-04-22 10:47 40.59205 -74.23177 4679 ft 182 kts 203°
2026-04-22 10:47 40.58013 -74.23833 5200 ft 190 kts 204°
2026-04-22 10:47 40.56784 -74.24578 5669 ft 199 kts 212°
2026-04-22 10:48 40.55611 -74.25616 6175 ft 209 kts 217°
2026-04-22 10:48 40.54393 -74.26763 6669 ft 223 kts 218°
2026-04-22 10:48 40.53079 -74.28004 7055 ft 241 kts 218°
2026-04-22 10:48 40.51809 -74.29468 7538 ft 248 kts 237°
2026-04-22 10:49 40.51196 -74.31580 8172 ft 258 kts 263°
2026-04-22 10:49 40.51465 -74.33934 8958 ft 269 kts 290°
2026-04-22 10:49 40.52144 -74.35351 9568 ft 276 kts 307°
2026-04-22 10:49 40.54337 -74.37130 10750 ft 287 kts 333°
2026-04-22 10:50 40.56214 -74.38047 11451 ft 288 kts 332°
2026-04-22 10:50 40.58064 -74.39040 12312 ft 286 kts 331°
2026-04-22 10:50 40.59894 -74.40053 13136 ft 286 kts 331°
2026-04-22 10:50 40.61147 -74.40732 13607 ft 289 kts 331°
2026-04-22 10:51 40.63012 -74.41765 14268 ft 294 kts 331°
2026-04-22 10:51 40.64907 -74.42805 14958 ft 297 kts 332°
2026-04-22 10:51 40.67464 -74.44151 15870 ft 299 kts 331°
2026-04-22 10:51 40.68730 -74.44852 16339 ft 301 kts 331°
2026-04-22 10:52 40.70699 -74.45954 17053 ft 304 kts 331°
2026-04-22 10:52 40.72632 -74.47033 17669 ft 307 kts 332°
2026-04-22 10:52 40.74635 -74.48131 18277 ft 310 kts 332°
2026-04-22 10:52 40.76616 -74.49214 18872 ft 314 kts 332°
2026-04-22 10:53 40.78635 -74.50316 19527 ft 315 kts 332°
2026-04-22 10:53 40.80674 -74.51428 20113 ft 318 kts 332°
2026-04-22 10:53 40.82728 -74.52550 20743 ft 320 kts 332°
2026-04-22 10:53 40.84788 -74.53679 21314 ft 323 kts 332°
2026-04-22 10:54 40.86877 -74.54821 21877 ft 326 kts 332°
2026-04-22 10:54 40.88984 -74.55972 22445 ft 329 kts 332°
2026-04-22 10:54 40.91098 -74.57128 23043 ft 331 kts 332°
2026-04-22 10:54 40.93234 -74.58298 23583 ft 333 kts 332°
2026-04-22 10:55 40.95380 -74.59474 24113 ft 336 kts 332°
2026-04-22 10:55 40.97562 -74.60671 24648 ft 339 kts 332°
2026-04-22 10:55 40.99742 -74.61870 25179 ft 342 kts 332°
2026-04-22 10:55 41.01988 -74.63109 25284 ft 358 kts 332°
2026-04-22 10:56 41.04329 -74.64399 25408 ft 372 kts 332°
2026-04-22 10:56 41.06747 -74.65728 25664 ft 382 kts 332°
2026-04-22 10:56 41.09228 -74.67094 26023 ft 388 kts 332°
2026-04-22 10:56 41.11611 -74.68716 26471 ft 385 kts 321°
2026-04-22 10:57 41.13658 -74.70975 27049 ft 381 kts 313°
2026-04-22 10:57 41.15418 -74.73601 27604 ft 381 kts 304°
2026-04-22 10:57 41.16811 -74.76585 28051 ft 383 kts 299°
2026-04-22 10:57 41.18137 -74.79675 28472 ft 387 kts 299°
2026-04-22 10:58 41.19466 -74.82799 28910 ft 390 kts 299°
2026-04-22 10:58 41.20809 -74.85945 29351 ft 392 kts 299°
2026-04-22 10:58 41.22159 -74.89095 29811 ft 394 kts 300°
2026-04-22 10:58 41.23506 -74.92224 30228 ft 396 kts 300°
2026-04-22 10:59 41.24898 -74.95445 30605 ft 399 kts 300°
2026-04-22 10:59 41.26268 -74.98613 30983 ft 401 kts 300°
2026-04-22 10:59 41.27665 -75.01843 31358 ft 404 kts 300°
2026-04-22 10:59 41.29083 -75.05124 31718 ft 406 kts 300°
2026-04-22 11:00 41.30493 -75.08390 32083 ft 408 kts 300°
2026-04-22 11:00 41.31890 -75.11629 32400 ft 410 kts 300°
2026-04-22 11:00 41.33308 -75.14921 32695 ft 412 kts 300°
2026-04-22 11:00 41.34736 -75.18241 33009 ft 414 kts 300°
2026-04-22 11:01 41.36165 -75.21562 33304 ft 415 kts 300°
2026-04-22 11:01 41.37603 -75.24912 33570 ft 417 kts 300°
2026-04-22 11:01 41.39047 -75.28277 33842 ft 419 kts 300°
2026-04-22 11:01 41.40490 -75.31645 34026 ft 421 kts 300°
2026-04-22 11:02 41.41952 -75.35063 34077 ft 426 kts 300°
2026-04-22 11:02 41.44880 -75.41916 34133 ft 424 kts 300°
2026-04-22 11:03 41.47705 -75.48775 34116 ft 420 kts 296°
2026-04-22 11:03 41.49847 -75.56008 34107 ft 419 kts 291°
2026-04-22 11:04 41.51915 -75.63269 34124 ft 418 kts 292°
2026-04-22 11:04 41.53999 -75.70541 34124 ft 419 kts 292°
2026-04-22 11:05 41.56084 -75.77826 34122 ft 421 kts 292°
2026-04-22 11:05 41.58175 -75.85155 34125 ft 422 kts 291°
2026-04-22 11:06 41.60253 -75.92500 34122 ft 423 kts 291°
2026-04-22 11:06 41.62323 -75.99867 34111 ft 424 kts 291°
2026-04-22 11:07 41.64395 -76.07251 34097 ft 425 kts 291°
2026-04-22 11:07 41.66468 -76.14656 34097 ft 425 kts 291°
2026-04-22 11:08 41.68532 -76.22049 34094 ft 424 kts 291°
2026-04-22 11:08 41.70607 -76.29429 34081 ft 424 kts 291°
2026-04-22 11:09 41.72685 -76.36797 34084 ft 423 kts 291°
2026-04-22 11:09 41.74756 -76.44173 34084 ft 423 kts 291°
2026-04-22 11:10 41.76803 -76.51490 34070 ft 422 kts 291°
2026-04-22 11:10 41.78849 -76.58859 34071 ft 422 kts 291°
2026-04-22 11:11 41.80887 -76.66250 34067 ft 422 kts 291°
2026-04-22 11:11 41.82918 -76.73634 34064 ft 422 kts 291°
2026-04-22 11:12 41.84946 -76.81026 34059 ft 423 kts 291°
2026-04-22 11:12 41.86972 -76.88431 34053 ft 423 kts 291°
2026-04-22 11:13 41.88995 -76.95849 34048 ft 423 kts 291°
2026-04-22 11:13 41.91004 -77.03278 34045 ft 424 kts 291°
2026-04-22 11:14 41.93007 -77.10726 34050 ft 424 kts 291°
2026-04-22 11:14 41.95014 -77.18200 34052 ft 425 kts 291°
2026-04-22 11:15 41.97018 -77.25681 34045 ft 425 kts 291°
2026-04-22 11:15 41.99014 -77.33152 34047 ft 425 kts 291°
2026-04-22 11:16 42.01000 -77.40620 34053 ft 424 kts 291°
2026-04-22 11:16 42.03015 -77.48073 34029 ft 424 kts 291°
2026-04-22 11:17 42.05046 -77.55507 34029 ft 423 kts 291°
2026-04-22 11:17 42.07069 -77.62940 34032 ft 423 kts 291°
2026-04-22 11:18 42.09085 -77.70393 34032 ft 423 kts 291°
2026-04-22 11:18 42.11095 -77.77845 34027 ft 424 kts 291°
2026-04-22 11:19 42.13103 -77.85312 34027 ft 424 kts 291°
2026-04-22 11:19 42.15103 -77.92784 34019 ft 424 kts 291°
2026-04-22 11:20 42.17102 -78.00265 34025 ft 424 kts 291°
2026-04-22 11:20 42.19095 -78.07744 34022 ft 424 kts 291°
2026-04-22 11:21 42.21085 -78.15241 34021 ft 425 kts 291°
2026-04-22 11:21 42.23072 -78.22746 34020 ft 425 kts 291°
2026-04-22 11:22 42.25028 -78.30213 34017 ft 425 kts 290°
2026-04-22 11:22 42.26908 -78.37775 34020 ft 425 kts 289°
2026-04-22 11:23 42.28772 -78.45340 34015 ft 425 kts 290°
2026-04-22 11:23 42.30639 -78.52907 34013 ft 424 kts 290°
2026-04-22 11:24 42.32509 -78.60483 34021 ft 425 kts 289°
2026-04-22 11:24 42.34373 -78.68057 34021 ft 425 kts 290°
2026-04-22 11:25 42.36231 -78.75647 34009 ft 426 kts 289°
2026-04-22 11:25 42.38091 -78.83255 34006 ft 426 kts 290°
2026-04-22 11:26 42.39773 -78.90947 34018 ft 427 kts 284°
2026-04-22 11:26 42.40560 -78.98889 34010 ft 431 kts 277°
2026-04-22 11:27 42.41063 -79.06963 34001 ft 431 kts 277°
2026-04-22 11:27 42.41576 -79.15045 33999 ft 431 kts 277°
2026-04-22 11:28 42.42094 -79.23120 33992 ft 431 kts 277°
2026-04-22 11:28 42.42610 -79.31216 33994 ft 432 kts 277°
2026-04-22 11:29 42.43123 -79.39314 33992 ft 432 kts 277°
2026-04-22 11:29 42.43627 -79.47414 33987 ft 432 kts 277°
2026-04-22 11:30 42.44127 -79.55519 33990 ft 432 kts 277°
2026-04-22 11:30 42.44619 -79.63617 34000 ft 432 kts 277°
2026-04-22 11:31 42.45108 -79.71718 34001 ft 432 kts 277°
2026-04-22 11:31 42.45591 -79.79830 34002 ft 432 kts 277°
2026-04-22 11:32 42.46069 -79.87943 34000 ft 433 kts 277°
2026-04-22 11:32 42.46541 -79.96065 34001 ft 433 kts 277°
2026-04-22 11:33 42.47008 -80.04205 34000 ft 433 kts 277°
2026-04-22 11:33 42.47469 -80.12293 34003 ft 434 kts 277°
2026-04-22 11:34 42.47928 -80.20444 34000 ft 434 kts 277°
2026-04-22 11:34 42.48381 -80.28601 33991 ft 434 kts 277°
2026-04-22 11:35 42.48827 -80.36762 33991 ft 434 kts 277°
2026-04-22 11:35 42.49269 -80.44934 33994 ft 435 kts 277°
2026-04-22 11:36 42.49632 -80.51729 34000 ft 435 kts 277°
2026-04-22 11:36 42.50066 -80.59956 34002 ft 435 kts 277°
2026-04-22 11:37 42.50492 -80.68130 34000 ft 435 kts 277°
2026-04-22 11:37 42.50804 -80.76330 34000 ft 436 kts 276°
2026-04-22 11:38 42.51044 -80.84550 34004 ft 436 kts 276°
2026-04-22 11:38 42.51414 -80.96867 34005 ft 436 kts 276°
2026-04-22 11:39 42.51666 -81.05094 34007 ft 437 kts 276°
2026-04-22 11:39 42.51912 -81.13333 34008 ft 438 kts 276°
2026-04-22 11:40 42.52150 -81.21539 34014 ft 439 kts 276°
2026-04-22 11:40 42.52589 -81.29792 34006 ft 437 kts 282°
2026-04-22 11:41 42.53550 -81.37921 34005 ft 437 kts 283°
2026-04-22 11:41 42.54496 -81.46064 34006 ft 438 kts 282°
2026-04-22 11:42 42.55422 -81.54218 34013 ft 438 kts 282°
2026-04-22 11:42 42.56339 -81.62379 34012 ft 438 kts 282°
2026-04-22 11:43 42.57249 -81.70544 34010 ft 438 kts 282°
2026-04-22 11:43 42.58154 -81.78721 34008 ft 438 kts 282°
2026-04-22 11:44 42.59054 -81.86896 34006 ft 438 kts 282°
2026-04-22 11:44 42.59949 -81.95075 34007 ft 438 kts 282°
2026-04-22 11:45 42.60837 -82.03252 34010 ft 438 kts 282°
2026-04-22 11:45 42.61721 -82.11449 34011 ft 438 kts 282°
2026-04-22 11:46 42.62598 -82.19644 34005 ft 439 kts 282°
2026-04-22 11:46 42.63470 -82.27847 34003 ft 438 kts 282°
2026-04-22 11:47 42.64337 -82.36048 34009 ft 438 kts 282°
2026-04-22 11:47 42.65197 -82.44243 34008 ft 439 kts 282°
2026-04-22 11:48 42.66052 -82.52451 34009 ft 439 kts 282°
2026-04-22 11:48 42.66915 -82.60665 34004 ft 439 kts 283°
2026-04-22 11:49 42.67770 -82.68818 33997 ft 439 kts 282°
2026-04-22 11:49 42.68621 -82.77044 33991 ft 439 kts 282°
2026-04-22 11:50 42.69446 -82.85267 33987 ft 439 kts 282°
2026-04-22 11:50 42.70267 -82.93497 33992 ft 439 kts 282°
2026-04-22 11:51 42.71081 -83.01715 33993 ft 438 kts 282°
2026-04-22 11:51 42.71993 -83.09890 34007 ft 436 kts 284°
2026-04-22 11:52 42.72968 -83.18030 34012 ft 436 kts 284°
2026-04-22 11:52 42.73927 -83.26173 34016 ft 436 kts 284°
2026-04-22 11:53 42.74871 -83.34336 34016 ft 437 kts 284°
2026-04-22 11:53 42.75803 -83.42504 34009 ft 437 kts 283°
2026-04-22 11:54 42.76731 -83.50679 34008 ft 437 kts 283°
2026-04-22 11:54 42.77654 -83.58860 34017 ft 437 kts 283°
2026-04-22 11:55 42.78571 -83.67040 34023 ft 438 kts 283°
2026-04-22 11:55 42.79484 -83.75238 34015 ft 438 kts 283°
2026-04-22 11:56 42.80393 -83.83450 34018 ft 438 kts 283°
2026-04-22 11:56 42.81295 -83.91660 34024 ft 438 kts 283°
2026-04-22 11:57 42.82192 -83.99861 34025 ft 438 kts 283°
2026-04-22 11:57 42.83086 -84.08068 34024 ft 438 kts 283°
2026-04-22 11:58 42.83972 -84.16264 34035 ft 438 kts 283°
2026-04-22 11:58 42.84853 -84.24471 34030 ft 438 kts 283°
2026-04-22 11:59 42.85730 -84.32686 34034 ft 438 kts 283°
2026-04-22 11:59 42.86600 -84.40904 34027 ft 437 kts 283°
2026-04-22 12:00 42.87461 -84.49102 34019 ft 437 kts 283°
2026-04-22 12:00 42.88295 -84.57273 34017 ft 439 kts 281°
2026-04-22 12:01 42.88272 -84.61472 34016 ft 449 kts 269°
2026-04-22 12:01 42.87797 -84.65686 34026 ft 451 kts 267°
2026-04-22 12:01 42.86789 -84.74129 34026 ft 451 kts 268°
2026-04-22 12:02 42.85887 -84.82595 34032 ft 451 kts 269°
2026-04-22 12:02 42.85015 -84.91077 34033 ft 452 kts 268°
2026-04-22 12:03 42.84122 -84.99547 34020 ft 452 kts 268°
2026-04-22 12:03 42.83213 -85.08030 34031 ft 452 kts 268°
2026-04-22 12:04 42.82300 -85.16499 34021 ft 451 kts 268°
2026-04-22 12:04 42.81843 -85.20717 33840 ft 448 kts 268°
2026-04-22 12:04 42.81390 -85.24889 33422 ft 444 kts 268°
2026-04-22 12:05 42.80938 -85.29043 32865 ft 443 kts 268°
2026-04-22 12:05 42.80485 -85.33193 32333 ft 442 kts 268°
2026-04-22 12:05 42.80034 -85.37325 31878 ft 439 kts 268°
2026-04-22 12:05 42.79584 -85.41419 31470 ft 436 kts 268°
2026-04-22 12:06 42.79134 -85.45504 31081 ft 433 kts 268°
2026-04-22 12:06 42.78685 -85.49542 30664 ft 430 kts 267°
2026-04-22 12:06 42.78103 -85.53533 30231 ft 431 kts 263°
2026-04-22 12:06 42.77371 -85.57500 30042 ft 434 kts 262°
2026-04-22 12:07 42.75853 -85.65460 30018 ft 434 kts 263°
2026-04-22 12:07 42.74389 -85.73584 30026 ft 452 kts 263°
2026-04-22 12:08 42.72893 -85.81844 29964 ft 438 kts 263°
2026-04-22 12:08 42.72165 -85.85809 29830 ft 425 kts 263°
2026-04-22 12:08 42.71459 -85.89659 29552 ft 415 kts 263°
2026-04-22 12:09 42.70772 -85.93448 29092 ft 412 kts 263°
2026-04-22 12:09 42.70100 -85.97168 28557 ft 411 kts 263°
2026-04-22 12:09 42.69408 -86.00969 28042 ft 408 kts 262°
2026-04-22 12:09 42.68730 -86.04664 27582 ft 405 kts 262°
2026-04-22 12:10 42.68049 -86.08359 27156 ft 401 kts 262°
2026-04-22 12:10 42.67367 -86.12060 26725 ft 397 kts 261°
2026-04-22 12:10 42.66696 -86.15693 26279 ft 394 kts 261°
2026-04-22 12:10 42.66032 -86.19294 25839 ft 391 kts 261°
2026-04-22 12:11 42.65373 -86.22857 25384 ft 388 kts 261°
2026-04-22 12:11 42.64715 -86.26405 24945 ft 385 kts 261°
2026-04-22 12:11 42.64068 -86.29882 24527 ft 382 kts 260°
2026-04-22 12:11 42.63411 -86.33405 24097 ft 379 kts 260°
2026-04-22 12:12 42.62764 -86.36870 23657 ft 377 kts 259°
2026-04-22 12:12 42.62131 -86.40260 23226 ft 374 kts 259°
2026-04-22 12:12 42.61492 -86.43675 22785 ft 372 kts 259°
2026-04-22 12:12 42.60858 -86.47060 22326 ft 371 kts 259°
2026-04-22 12:13 42.60223 -86.50442 21885 ft 369 kts 259°
2026-04-22 12:13 42.59592 -86.53797 21435 ft 367 kts 259°
2026-04-22 12:13 42.58959 -86.57160 20993 ft 365 kts 259°
2026-04-22 12:13 42.58334 -86.60473 20578 ft 362 kts 259°
2026-04-22 12:14 42.57709 -86.63787 20115 ft 361 kts 259°
2026-04-22 12:14 42.57089 -86.67059 19682 ft 358 kts 259°
2026-04-22 12:14 42.56468 -86.70329 19236 ft 356 kts 259°
2026-04-22 12:14 42.55817 -86.73562 18797 ft 355 kts 256°
2026-04-22 12:15 42.55006 -86.76734 18336 ft 355 kts 253°
2026-04-22 12:15 42.54137 -86.79854 17898 ft 353 kts 253°
2026-04-22 12:15 42.53260 -86.82963 17445 ft 352 kts 253°
2026-04-22 12:15 42.52397 -86.86054 17010 ft 349 kts 253°
2026-04-22 12:16 42.51546 -86.89136 16578 ft 347 kts 253°
2026-04-22 12:16 42.50709 -86.92187 16154 ft 344 kts 253°
2026-04-22 12:16 42.49885 -86.95217 15714 ft 342 kts 253°
2026-04-22 12:16 42.49064 -86.98231 15258 ft 340 kts 253°
2026-04-22 12:17 42.48509 -87.00266 14937 ft 340 kts 253°
2026-04-22 12:17 42.47430 -87.04228 14343 ft 338 kts 253°
2026-04-22 12:17 42.46618 -87.07200 13942 ft 335 kts 253°
2026-04-22 12:17 42.46082 -87.09158 13667 ft 333 kts 253°
2026-04-22 12:18 42.45281 -87.12088 13233 ft 331 kts 253°
2026-04-22 12:18 42.44488 -87.14978 12999 ft 322 kts 253°
2026-04-22 12:18 42.43721 -87.17763 12916 ft 309 kts 253°
2026-04-22 12:18 42.42984 -87.20439 12820 ft 297 kts 253°
2026-04-22 12:19 42.42280 -87.23005 12657 ft 286 kts 253°
2026-04-22 12:19 42.41595 -87.25501 12432 ft 279 kts 253°
2026-04-22 12:19 42.40923 -87.27943 12077 ft 276 kts 253°
2026-04-22 12:19 42.40259 -87.30359 11679 ft 275 kts 253°
2026-04-22 12:20 42.39591 -87.32781 11284 ft 274 kts 253°
2026-04-22 12:20 42.38925 -87.35194 10890 ft 272 kts 253°
2026-04-22 12:20 42.38264 -87.37583 10512 ft 269 kts 253°
2026-04-22 12:20 42.37607 -87.39956 10090 ft 269 kts 253°
2026-04-22 12:21 42.36951 -87.42318 9684 ft 268 kts 252°
2026-04-22 12:21 42.36299 -87.44674 9288 ft 266 kts 252°
2026-04-22 12:21 42.35652 -87.47004 9028 ft 265 kts 252°
2026-04-22 12:21 42.34995 -87.49373 9021 ft 271 kts 251°
2026-04-22 12:22 42.34335 -87.51746 8992 ft 267 kts 251°
2026-04-22 12:22 42.33403 -87.53904 9000 ft 274 kts 227°
2026-04-22 12:22 42.31893 -87.55557 9021 ft 283 kts 220°
2026-04-22 12:22 42.30329 -87.57184 9019 ft 284 kts 221°
2026-04-22 12:23 42.28772 -87.58836 8999 ft 285 kts 221°
2026-04-22 12:23 42.27213 -87.60490 8990 ft 285 kts 221°
2026-04-22 12:23 42.25618 -87.62055 8984 ft 283 kts 210°
2026-04-22 12:23 42.23716 -87.62771 9018 ft 287 kts 188°
2026-04-22 12:24 42.21689 -87.62854 9009 ft 295 kts 183°
2026-04-22 12:24 42.19625 -87.62827 9002 ft 298 kts 182°
2026-04-22 12:24 42.17549 -87.62783 8997 ft 298 kts 182°
2026-04-22 12:24 42.15479 -87.62735 8996 ft 297 kts 182°
2026-04-22 12:25 42.13415 -87.62682 9000 ft 296 kts 182°
2026-04-22 12:25 42.11365 -87.62627 9013 ft 295 kts 182°
2026-04-22 12:25 42.09320 -87.62573 9000 ft 294 kts 182°
2026-04-22 12:25 42.07265 -87.62518 8997 ft 294 kts 182°
2026-04-22 12:26 42.05222 -87.62463 8996 ft 293 kts 182°
2026-04-22 12:26 42.03208 -87.62408 8997 ft 293 kts 182°
2026-04-22 12:26 42.01144 -87.62353 8999 ft 293 kts 182°
2026-04-22 12:26 41.99104 -87.62299 9017 ft 293 kts 182°
2026-04-22 12:27 41.97094 -87.62248 8998 ft 293 kts 182°
2026-04-22 12:27 41.95058 -87.62194 8988 ft 293 kts 182°
2026-04-22 12:27 41.93013 -87.62139 8993 ft 294 kts 182°
2026-04-22 12:27 41.90977 -87.62083 9001 ft 294 kts 182°
2026-04-22 12:28 41.88925 -87.62026 8996 ft 294 kts 182°
2026-04-22 12:28 41.86874 -87.61973 8986 ft 295 kts 182°
2026-04-22 12:28 41.84818 -87.61920 8992 ft 296 kts 182°
2026-04-22 12:28 41.82761 -87.61867 9002 ft 296 kts 182°
2026-04-22 12:29 41.80712 -87.61700 8979 ft 296 kts 170°
2026-04-22 12:29 41.78827 -87.60570 8991 ft 301 kts 143°
2026-04-22 12:29 41.77467 -87.58452 8992 ft 304 kts 117°
2026-04-22 12:29 41.76744 -87.55809 9015 ft 305 kts 105°
2026-04-22 12:30 41.75722 -87.50213 8998 ft 311 kts 103°
2026-04-22 12:30 41.75232 -87.47393 8999 ft 312 kts 103°
2026-04-22 12:30 41.74742 -87.44551 8995 ft 314 kts 103°
2026-04-22 12:31 41.74256 -87.41699 8993 ft 314 kts 102°
2026-04-22 12:31 41.73773 -87.38849 8990 ft 314 kts 102°
2026-04-22 12:31 41.73327 -87.35993 8980 ft 311 kts 96°
2026-04-22 12:31 41.73165 -87.33113 8995 ft 309 kts 91°
2026-04-22 12:32 41.73110 -87.30245 8987 ft 308 kts 90°
2026-04-22 12:32 41.73043 -87.24525 8993 ft 307 kts 90°
2026-04-22 12:32 41.73012 -87.21681 9003 ft 305 kts 90°
2026-04-22 12:33 41.72982 -87.18833 9002 ft 305 kts 89°
2026-04-22 12:33 41.72954 -87.15989 8993 ft 306 kts 89°
2026-04-22 12:33 41.72928 -87.13181 9001 ft 306 kts 89°
2026-04-22 12:33 41.72901 -87.10336 9016 ft 306 kts 89°
2026-04-22 12:34 41.72872 -87.07485 9017 ft 306 kts 89°
2026-04-22 12:34 41.72843 -87.04632 9010 ft 307 kts 89°
2026-04-22 12:34 41.72813 -87.01774 9008 ft 307 kts 89°
2026-04-22 12:34 41.72784 -86.98914 9013 ft 307 kts 89°
2026-04-22 12:35 41.72758 -86.96044 9013 ft 308 kts 89°
2026-04-22 12:35 41.72729 -86.93178 9018 ft 308 kts 89°
2026-04-22 12:35 41.72700 -86.90314 9025 ft 308 kts 89°
2026-04-22 12:35 41.72672 -86.87448 9015 ft 308 kts 89°
2026-04-22 12:36 41.72645 -86.84583 9020 ft 307 kts 88°
2026-04-22 12:36 41.73028 -86.81857 8998 ft 294 kts 59°
2026-04-22 12:36 41.74337 -86.79900 9014 ft 279 kts 25°
2026-04-22 12:36 41.76146 -86.79183 9024 ft 270 kts 359°
2026-04-22 12:37 41.78029 -86.79233 9027 ft 272 kts 352°
2026-04-22 12:37 41.79888 -86.79664 9003 ft 270 kts 336°
2026-04-22 12:37 41.81537 -86.80807 9026 ft 268 kts 326°
2026-04-22 12:37 41.83103 -86.82178 9022 ft 269 kts 324°
2026-04-22 12:38 41.84652 -86.83554 9001 ft 266 kts 324°
2026-04-22 12:38 41.86192 -86.84896 9021 ft 262 kts 325°
2026-04-22 12:38 41.87729 -86.86203 9022 ft 262 kts 326°
2026-04-22 12:38 41.89278 -86.87505 9036 ft 263 kts 326°
2026-04-22 12:39 41.90839 -86.88809 9024 ft 265 kts 326°
2026-04-22 12:39 41.93804 -86.91658 9022 ft 258 kts 303°
2026-04-22 12:39 41.94553 -86.93792 9027 ft 258 kts 284°
2026-04-22 12:40 41.94787 -86.96180 9033 ft 259 kts 275°
2026-04-22 12:40 41.94911 -86.98611 9030 ft 262 kts 275°
2026-04-22 12:40 41.95031 -87.01063 9032 ft 264 kts 275°
2026-04-22 12:40 41.95150 -87.03526 9022 ft 265 kts 275°
2026-04-22 12:41 41.95273 -87.06008 9020 ft 267 kts 275°
2026-04-22 12:41 41.95398 -87.08501 9002 ft 267 kts 275°
2026-04-22 12:41 41.95525 -87.10991 9009 ft 267 kts 275°
2026-04-22 12:41 41.95651 -87.13468 9019 ft 265 kts 275°
2026-04-22 12:42 41.95779 -87.15935 9002 ft 263 kts 275°
2026-04-22 12:42 41.95905 -87.18379 9000 ft 262 kts 275°
2026-04-22 12:42 41.96031 -87.20810 9003 ft 260 kts 275°
2026-04-22 12:42 41.96156 -87.23228 9002 ft 259 kts 275°
2026-04-22 12:43 41.96281 -87.25646 9000 ft 259 kts 275°
2026-04-22 12:43 41.96404 -87.28055 8999 ft 258 kts 275°
2026-04-22 12:43 41.96521 -87.30464 9001 ft 259 kts 273°
2026-04-22 12:43 41.96556 -87.32941 8561 ft 270 kts 271°
2026-04-22 12:44 41.96554 -87.35462 8226 ft 269 kts 271°
2026-04-22 12:44 41.96550 -87.37968 7849 ft 267 kts 270°
2026-04-22 12:44 41.96549 -87.40415 7491 ft 264 kts 271°
2026-04-22 12:44 41.96553 -87.42865 7141 ft 260 kts 270°
2026-04-22 12:45 41.96558 -87.45281 6788 ft 257 kts 270°
2026-04-22 12:45 41.96563 -87.47669 6450 ft 254 kts 270°
2026-04-22 12:45 41.96566 -87.50024 6117 ft 250 kts 270°
2026-04-22 12:45 41.96570 -87.52346 5785 ft 248 kts 270°
2026-04-22 12:46 41.96574 -87.54656 5460 ft 246 kts 270°
2026-04-22 12:46 41.96577 -87.56945 5139 ft 244 kts 270°
2026-04-22 12:46 41.96581 -87.59205 4828 ft 239 kts 270°
2026-04-22 12:46 41.96582 -87.61403 4536 ft 233 kts 270°
2026-04-22 12:47 41.96583 -87.63554 4233 ft 225 kts 270°
2026-04-22 12:47 41.96584 -87.65619 3903 ft 217 kts 270°
2026-04-22 12:47 41.96587 -87.67601 3624 ft 207 kts 270°
2026-04-22 12:47 41.96588 -87.69484 3377 ft 195 kts 270°
2026-04-22 12:48 41.96591 -87.71246 3140 ft 183 kts 271°
2026-04-22 12:48 41.96603 -87.72936 2922 ft 182 kts 270°
2026-04-22 12:48 41.96604 -87.74639 2727 ft 180 kts 270°
2026-04-22 12:48 41.96601 -87.76285 2512 ft 172 kts 269°
2026-04-22 12:49 41.96598 -87.77856 2331 ft 164 kts 269°
2026-04-22 12:49 41.96596 -87.79345 2121 ft 157 kts 269°
2026-04-22 12:49 41.96593 -87.80809 1918 ft 158 kts 268°
2026-04-22 12:49 41.96591 -87.81786 1772 ft 158 kts 268°
2026-04-22 12:50 41.96587 -87.83739 1485 ft 155 kts 268°
2026-04-22 12:50 41.96585 -87.85183 1276 ft 154 kts 268°
2026-04-22 12:50 41.96581 -87.86618 1109 ft 152 kts 268°
2026-04-22 12:50 41.96575 -87.88011 949 ft 152 kts 267°
2026-04-22 12:51 41.96587 -87.89449 744 ft 154 kts 268°
2026-04-22 12:51 41.96567 -87.90815 674 ft 138 kts 273°
2026-04-22 12:51 41.96573 -87.91888 672 ft 86 kts 270°
2026-04-22 12:51 41.96569 -87.92441 674 ft 34 kts 272°
2026-04-22 12:52 41.96676 -87.92535 673 ft 19 kts 359°
2026-04-22 12:52 41.96806 -87.92532 672 ft 19 kts
2026-04-22 12:52 41.96936 -87.92534 672 ft 19 kts 359°
2026-04-22 12:52 41.97065 -87.92535 673 ft 19 kts 360°
2026-04-22 12:53 41.97153 -87.92447 673 ft 19 kts 87°
2026-04-22 12:53 41.97155 -87.92273 673 ft 19 kts 90°
2026-04-22 12:53 41.97154 -87.92099 673 ft 19 kts 90°
2026-04-22 12:53 41.97153 -87.91925 673 ft 19 kts 90°
2026-04-22 12:54 41.97154 -87.91750 673 ft 19 kts 90°
2026-04-22 12:54 41.97154 -87.91576 673 ft 19 kts 90°
2026-04-22 12:54 41.97154 -87.91402 673 ft 19 kts 89°
2026-04-22 12:54 41.97193 -87.91242 673 ft 19 kts 52°
2026-04-22 12:55 41.97246 -87.91151 673 ft 19 kts 52°
2026-04-22 12:55 41.97323 -87.90950 673 ft 19 kts 47°
2026-04-22 12:55 41.97429 -87.90990 673 ft 19 kts 318°
2026-04-22 12:55 41.97530 -87.91100 673 ft 19 kts 323°
2026-04-22 12:56 41.97636 -87.91200 673 ft 19 kts 325°
2026-04-22 12:56 41.97752 -87.91256 673 ft 16 kts 19°
2026-04-22 12:56 41.97771 -87.91171 673 ft 10 kts 96°
2026-04-22 12:56 41.97764 -87.91117 673 ft 2 kts 101°